CZ-6A DEB

Satellite information

Favourite Embed

Satellite Type and Status

DEBRISIN ORBIT

Key statistics

Satellite CZ-6A DEB at a glance.

Uptime

1031

Days in orbit

Revolutions

≈ 14.2

Per day

Orbit

SSO

Sun Synchronous Orbit

Inclination

98.8

Latest

Satellite identification and parameters

Extended collection of information and parameters for CZ-6A DEB.

Object identification

Identified? True

Debris? True

Object name: CZ-6A DEB

International designator: 2022-151AFN

Object number (NORAD): 56638

Object ID (CCSDS): 56638

Country: PEOPLES REPUBLIC OF CHINA (PRC)

Current information (Y/N): Y

RCS size: SMALL

Orbital parameters

Period: 101.559 minutes

Inclination: 98.8444 deg

SMA: 7210.596 km

Apoapsis: 869.346 km

Periapsis: 795.577 km

RAAN: 266.3963 deg

Eccentricy: 0.00511531

Argument of periapsis: 92.5659 deg

Mean anomaly: 268.1373 deg

Mean motion: 14.17901281 rev/day

Mean motion (dot): 0.0000102 rev/day2

B* drag term: 0.00051389581 1/REarth

Two-line elements (TLE)

Creation date: Sept. 7, 2025, 3:09 a.m.

Reference frame: TEME

Reference center: EARTH

Epoch: Sept. 6, 2025, 6:19 p.m. UTC

TLE line 0: 0 CZ-6A DEB

TLE line 1: 1 56638U 22151AFN 25249.76372268 .00001020 00000-0 51390-3 0 9996

TLE line 2: 2 56638 98.8444 266.3963 0051153 92.5659 268.1373 14.17901281122620

Live tracking on map

Real-time ground track for satellite CZ-6A DEB.

In-orbit conjunctions

A list of the most updated potential collisions computed for object CZ-6A DEB.

Target Orbit TCA Probability of collision Miss distance Type
METEOR 2-8 DEB LEO 2025-08-14 08:38:29 0.0001469384 75.0 (m) DEBRIS
FENGYUN 1C DEB SSO 2024-11-14 12:50:37 0.0001185753 328.0 (m) DEBRIS
CZ-6A DEB LEO 2024-10-15 20:49:42 0.0002058349 317.0 (m) DEBRIS

Associated space launch

Chinese satellite reported for atmospheric/ocean/environmental/spatial parameter research purposes, details TBD.

CZ-6A DEB was lifted into orbit during the mission ‘Long March 6A | Yunhai 3’, on board a Long March 6A space rocket.

The launch took place on Nov. 11, 2022, 10:52 p.m. from Launch Complex 9A.

For more information about the launch, click the button.

Launch to space Long March 6A | Yunhai 3
Long March 6A | Yunhai 3

Agency: N/A

Status: Launch Successful

Launch date: Nov. 11, 2022, 10:52 p.m. UTC

Rocket: Long March 6A

Launch pad: Launch Complex 9A

Location: Taiyuan Satellite Launch Center, People's Republic of China

...

Latest news about this satellite

There are no fresh news available about this satellite. Check back as we update our databases every day.


Newsletter sign-up

Weekly statistics, charts and insights to help you stay on top of the space industry.